TRANSAT DEB

基本信息
目录编号:
57001
目录名称:
TRANSAT DEB
国际标识:
1977-106D
轨道中心:
EARTH
物体状态:
在轨
发射日期:
1977-10-28 UTC
轨道信息
数据来源: 国际轨道数据
星历时间: 2026-07-13T23:30:08+0800
半长轴: 7444.408km
偏心率: 0.0023448
轨道倾角: 89.646°
近地点辐角: 299.520°
升交点赤经: 71.100°
平近点角: 60.361°
近地点: 1048.815km
远地点: 1083.727km
周期: 106.538分钟
每日圈数: 13.516291
详细信息
发射场:
AFWTR
轨道高度:
LEO
数据来源:
AOE Integration Group
参考系:
TEME
时间系统:
UTC
历元类型:
SGP4
2D轨道图
3D轨道图
轨道高度分析图
轨道倾角分析图
轨道综合分析图
查看轨道综合分析图